Location: Bucharest
(44.4268°N, 26.1025°E)
Time: 04:36:14
(UTC+02:00)

TIROS 6 DEB - Visible Passes

Search period start: 10 December 2022 00:00
Search period end: 20 December 2022 00:00
Orbit: 613 x 633 km, 58.3° (Epoch: 07 December)

Date Brightness Start Highest point End Pass type
(mag) Time Alt. Az. Time Alt. Az. Time Alt. Az.
10 Dec ? 17:19:22 10° NW 17:23:38 39° NE 17:27:53 10° ESE visible
10 Dec ? 19:00:07 10° WNW 19:04:17 37° SW 19:06:44 21° S visible
11 Dec ? 17:37:43 10° NW 17:42:14 70° NE 17:46:45 10° SE visible
11 Dec ? 19:19:21 10° WNW 19:22:28 18° WSW 19:25:35 10° SSW visible
12 Dec ? 17:56:13 10° NW 18:00:41 61° SW 18:05:08 10° SSE visible
13 Dec ? 18:15:01 10° WNW 18:18:58 30° SW 18:22:54 10° S visible
14 Dec ? 18:34:34 10° W 18:37:06 15° WSW 18:39:37 10° SSW visible
15 Dec ? 17:11:02 10° NW 17:15:24 49° SW 17:19:45 10° SSE visible
16 Dec ? 17:29:58 10° WNW 17:33:38 24° WSW 17:37:17 10° S visible
17 Dec ? 17:50:07 10° W 17:51:42 12° WSW 17:53:18 10° SW visible
19 Dec ? 06:39:42 10° SE 06:41:08 11° ESE 06:42:33 10° E visible
